sat.trackr.live / text

‹ back to catalog

SPARTAN

NORAD 48964 · 2021-059CP

PAYLOAD ACTIVE UNKNOWN

§ Identity

Operator
Country
BUL
Launch date
2021-06-30
Launch site
AFETR
Launch vehicle
Mass (kg)
RCS (m²)

External: N2YO · Heavens-Above · Gunter

§ Orbital elements

Epoch: 2026-09-20T13:13:30.730368Z

Period
88.99 min
Inclination
97.6557°
Eccentricity
0.0003687
Mean motion
16.18115820 rev/d
Perigee alt
222.2 km
Apogee alt
227.1 km
Semi-major
6,602.8 km
B*
5.7595e-4
RAAN
116.7003°
Arg perigee
243.2841°
Mean anomaly
116.8068°
Rev number
29,310

§ Raw data

SPARTAN1 48964U 21059CP  26263.55105012  .00938380  25759-5  57595-3 0  99942 48964  97.6557 116.7003 0003687 243.2841 116.8068 16.18115820293106

JSON: /api/v1/satellites/48964 · /tle

For live sub-satellite position, see the globe view (requires WebGL).

§ Visibility from observer

Set your observer location to see the next 7 days of passes ≥ 10°. The values pass through the URL so the page stays shareable.

No JS? Fill the form by hand. The geolocation button needs JavaScript.